Location: Newark
(42.8481°N, 0.4872°E)
Time: 16:53:24
(UTC+00:00)

A-11 Canister half - Pass Details

Date: 27 October 2020
Orbit: 1525 x 1683 km, 47.3° (Epoch: 22 November)

Event Time Altitude Azimuth Distance (km) Brightness Sun altitude
Rises 14:33:28 0° 231° (SW) 4,794 13.1 21.7°
Reaches altitude 10° 14:36:36 10° 230° (SW) 3,789 13.3 21.3°
Maximum altitude 14:46:06 71° 148° (SSE) 1,625 9.6 20.0°
Drops below altitude 10° 14:55:23 10° 67° (ENE) 3,704 10.5 18.7°
Sets 14:58:24 0° 65° (ENE) 4,682 10.9 18.3°
